• In France
  • List of Countries
  • For 7 days
  • Water Temperature
  • Satellite Maps
  • Weather Map
  • Weather Widgets
  • user-avatar
    Login

    Hourly Weather Gjirokaster

    Today, 17 October, Wednesday

    Time Temperature Precipitation Wind Pressure Humidity
    00:00 +11°C° 0 mm 1 mps 655 mmHg 73%
    01:00 +10°C° 0 mm 1 mps 654 mmHg 71%
    02:00 +10°C° 0 mm 1 mps 654 mmHg 72%
    03:00 +10°C° 0 mm 1 mps 654 mmHg 73%
    04:00 +10°C° 0 mm 1 mps 654 mmHg 74%
    05:00 +10°C° 0 mm 1 mps 654 mmHg 73%
    06:00 +10°C° 0 mm 1 mps 654 mmHg 72%
    07:00 +10°C° 0 mm 2 mps 654 mmHg 69%
    08:00 +13°C° 0 mm 1 mps 654 mmHg 62%
    09:00 +15°C° 0 mm 1 mps 655 mmHg 54%
    10:00 +18°C° 0 mm 1 mps 655 mmHg 47%
    11:00 +19°C° 0 mm 1 mps 655 mmHg 44%
    12:00 +19°C° 0 mm 1 mps 655 mmHg 42%
    13:00 +19°C° 0 mm 2 mps 655 mmHg 40%
    14:00 +18°C° 0 mm 2 mps 654 mmHg 44%
    15:00 +18°C° 0 mm 2 mps 654 mmHg 47%
    16:00 +17°C° 0 mm 2 mps 654 mmHg 51%
    17:00 +15°C° 0 mm 1 mps 653 mmHg 57%
    18:00 +14°C° 0 mm 1 mps 653 mmHg 62%
    19:00 +12°C° 0 mm 1 mps 653 mmHg 67%
    20:00 +12°C° 0 mm 1 mps 653 mmHg 67%
    21:00 +12°C° 0 mm 1 mps 653 mmHg 66%
    22:00 +11°C° 0 mm 1 mps 653 mmHg 66%
    23:00 +11°C° 0 mm 1 mps 653 mmHg 65%

    Tomorrow, 18 October, Thursday

    Time Temperature Precipitation Wind Pressure Humidity
    00:00 +11°C° 0 mm 1 mps 653 mmHg 64%
    01:00 +10°C° 0 mm 1 mps 652 mmHg 64%
    02:00 +10°C° 0 mm 1 mps 652 mmHg 63%
    03:00 +10°C° 0 mm 1 mps 652 mmHg 63%
    04:00 +8°C° 0 mm 2 mps 652 mmHg 63%
    05:00 +9°C° 0 mm 2 mps 652 mmHg 62%
    06:00 +9°C° 0 mm 2 mps 652 mmHg 61%
    07:00 +10°C° 0 mm 2 mps 652 mmHg 60%
    08:00 +13°C° 0 mm 1 mps 653 mmHg 54%
    09:00 +15°C° 0 mm 1 mps 653 mmHg 48%
    10:00 +18°C° 0 mm 1 mps 654 mmHg 41%
    11:00 +19°C° 0 mm 1 mps 653 mmHg 40%
    12:00 +19°C° 0 mm 1 mps 653 mmHg 38%
    13:00 +19°C° 0 mm 2 mps 653 mmHg 37%
    14:00 +18°C° 0 mm 2 mps 653 mmHg 40%
    15:00 +18°C° 0 mm 2 mps 653 mmHg 44%
    16:00 +18°C° 0 mm 1 mps 652 mmHg 48%
    17:00 +15°C° 0 mm 1 mps 652 mmHg 54%
    18:00 +14°C° 0 mm 1 mps 652 mmHg 60%
    19:00 +12°C° 0 mm 1 mps 652 mmHg 66%
    20:00 +12°C° 0 mm 1 mps 652 mmHg 66%
    21:00 +11°C° 0 mm 1 mps 652 mmHg 66%
    22:00 +10°C° 0 mm 2 mps 652 mmHg 67%
    23:00 +10°C° 0 mm 2 mps 652 mmHg 67%

    Day after tomorrow, 19 October, Friday

    Time Temperature Precipitation Wind Pressure Humidity
    00:00 +10°C° 0 mm 2 mps 652 mmHg 66%
    01:00 +10°C° 0 mm 2 mps 652 mmHg 66%
    02:00 +10°C° 0 mm 1 mps 652 mmHg 66%
    03:00 +10°C° 0 mm 1 mps 652 mmHg 66%
    04:00 +10°C° 0 mm 1 mps 652 mmHg 67%
    05:00 +10°C° 0 mm 1 mps 652 mmHg 65%
    06:00 +11°C° 0 mm 1 mps 652 mmHg 64%
    07:00 +11°C° 0 mm 1 mps 652 mmHg 63%
    08:00 +13°C° 0 mm 1 mps 653 mmHg 57%
    09:00 +16°C° 0 mm 1 mps 654 mmHg 50%
    10:00 +17°C° 0 mm 0 mps 654 mmHg 43%
    11:00 +19°C° 0 mm 1 mps 654 mmHg 41%
    12:00 +19°C° 0 mm 2 mps 654 mmHg 40%
    13:00 +19°C° 0 mm 2 mps 654 mmHg 38%
    14:00 +19°C° 0 mm 2 mps 654 mmHg 41%
    15:00 +18°C° 0 mm 3 mps 654 mmHg 44%
    16:00 +17°C° 0 mm 3 mps 653 mmHg 47%
    17:00 +16°C° 0 mm 2 mps 653 mmHg 52%
    18:00 +14°C° 0 mm 2 mps 653 mmHg 56%
    19:00 +12°C° 0 mm 2 mps 653 mmHg 61%
    20:00 +12°C° 0 mm 2 mps 653 mmHg 61%
    21:00 +12°C° 0 mm 2 mps 653 mmHg 62%
    22:00 +10°C° 0 mm 2 mps 653 mmHg 62%
    23:00 +10°C° 0 mm 2 mps 653 mmHg 63%

    20 October, Saturday

    Time Temperature Precipitation Wind Pressure Humidity
    00:00 +10°C° 0 mm 2 mps 653 mmHg 63%
    01:00 +9°C° 0 mm 2 mps 653 mmHg 63%
    02:00 +9°C° 0 mm 2 mps 653 mmHg 64%
    03:00 +9°C° 0 mm 2 mps 653 mmHg 64%
    04:00 +9°C° 0 mm 2 mps 653 mmHg 64%
    05:00 +9°C° 0 mm 2 mps 653 mmHg 63%
    06:00 +9°C° 0 mm 2 mps 653 mmHg 62%
    07:00 +10°C° 0 mm 2 mps 654 mmHg 61%
    08:00 +13°C° 0 mm 2 mps 654 mmHg 54%
    09:00 +15°C° 0 mm 2 mps 655 mmHg 47%
    10:00 +17°C° 0 mm 2 mps 655 mmHg 39%
    11:00 +17°C° 0 mm 3 mps 655 mmHg 38%
    12:00 +18°C° 0 mm 3 mps 655 mmHg 37%
    13:00 +18°C° 0 mm 4 mps 655 mmHg 36%
    14:00 +18°C° 0 mm 4 mps 655 mmHg 39%
    15:00 +17°C° 0 mm 4 mps 655 mmHg 42%
    16:00 +15°C° 0 mm 4 mps 654 mmHg 45%
    17:00 +14°C° 0 mm 4 mps 654 mmHg 49%
    18:00 +12°C° 0 mm 4 mps 654 mmHg 53%
    19:00 +11°C° 0 mm 3 mps 654 mmHg 58%
    20:00 +10°C° 0 mm 3 mps 654 mmHg 58%
    21:00 +10°C° 0 mm 3 mps 654 mmHg 58%
    22:00 +9°C° 0 mm 3 mps 654 mmHg 59%
    23:00 +9°C° 0 mm 3 mps 654 mmHg 60%

    21 October, Sunday

    Time Temperature Precipitation Wind Pressure Humidity
    00:00 +8°C° 0 mm 3 mps 654 mmHg 61%
    01:00 +8°C° 0 mm 3 mps 653 mmHg 63%
    02:00 +7°C° 0 mm 3 mps 653 mmHg 64%
    03:00 +7°C° 0 mm 3 mps 653 mmHg 66%
    04:00 +7°C° 0 mm 3 mps 653 mmHg 68%
    05:00 +7°C° 0 mm 3 mps 653 mmHg 68%
    06:00 +7°C° 0 mm 3 mps 654 mmHg 68%
    07:00 +7°C° 0 mm 3 mps 654 mmHg 68%
    08:00 +9°C° 0 mm 2 mps 654 mmHg 60%
    09:00 +12°C° 0 mm 2 mps 655 mmHg 51%
    10:00 +14°C° 0 mm 2 mps 655 mmHg 43%
    11:00 +15°C° 0 mm 2 mps 655 mmHg 41%
    12:00 +16°C° 0 mm 2 mps 655 mmHg 38%
    13:00 +17°C° 0 mm 2 mps 655 mmHg 36%
    14:00 +16°C° 0 mm 2 mps 654 mmHg 39%
    15:00 +14°C° 0 mm 3 mps 654 mmHg 42%
    16:00 +14°C° 0 mm 3 mps 653 mmHg 46%
    17:00 +12°C° 0 mm 3 mps 653 mmHg 51%
    18:00 +11°C° 0 mm 3 mps 653 mmHg 56%
    19:00 +9°C° 0 mm 3 mps 652 mmHg 62%
    20:00 +9°C° 0 mm 2 mps 652 mmHg 63%
    21:00 +8°C° 0 mm 2 mps 652 mmHg 65%
    22:00 +8°C° 0 mm 2 mps 652 mmHg 66%
    23:00 +8°C° 0 mm 2 mps 651 mmHg 67%

    22 October, Monday

    Time Temperature Precipitation Wind Pressure Humidity
    00:00 +7°C° 0 mm 2 mps 651 mmHg 68%
    01:00 +7°C° 0 mm 2 mps 650 mmHg 69%
    02:00 +7°C° 0 mm 2 mps 650 mmHg 69%
    03:00 +7°C° 0 mm 2 mps 650 mmHg 68%
    04:00 +7°C° 0 mm 2 mps 650 mmHg 67%
    05:00 +7°C° 0.7 mm 2 mps 649 mmHg 71%
    06:00 +7°C° 0.7 mm 2 mps 649 mmHg 74%
    07:00 +6°C° 0.7 mm 2 mps 649 mmHg 78%
    08:00 +6°C° 1.5 mm 2 mps 649 mmHg 79%
    09:00 +5°C° 1.5 mm 3 mps 649 mmHg 81%
    10:00 +5°C° 1.5 mm 3 mps 649 mmHg 83%
    11:00 +5°C° 0.8 mm 3 mps 649 mmHg 81%
    12:00 +5°C° 0.8 mm 3 mps 649 mmHg 78%
    13:00 +5°C° 0.8 mm 4 mps 649 mmHg 76%
    14:00 +5°C° 0.5 mm 4 mps 648 mmHg 76%
    15:00 +5°C° 0.5 mm 4 mps 648 mmHg 76%
    16:00 +5°C° 0.5 mm 4 mps 648 mmHg 76%
    17:00 +4°C° 0.3 mm 3 mps 648 mmHg 79%
    18:00 +3°C° 0.3 mm 3 mps 648 mmHg 81%
    19:00 +4°C° 0.3 mm 2 mps 648 mmHg 84%
    20:00 +3°C° 0.1 mm 2 mps 648 mmHg 83%
    21:00 +3°C° 0.1 mm 2 mps 648 mmHg 83%
    22:00 +3°C° 0.1 mm 2 mps 648 mmHg 83%
    23:00 +3°C° 0.1 mm 2 mps 648 mmHg 83%
    Show more